Lid_Strength_Index
1 3 3 3 3 3 3 2 3 3 3 4 4 4 4 3 4 3 3 4 4 3
1 2 3 3 4 3 3 1 2 2 3 3 2 4 4 4 4 4 4 4 4 4
1 1 1 3 4 3 3 2 1 2 3 4 4 3 3 4 4 4 3 3 4 5
1 1 1 1 3 3 2 2 2 2 2 3 3 3 3 4 4 3 4 4 5 5
2 2 2 2 2 2 2 2 1 1 2 2 3 4 3 3 3 3 4 5 6 6
3 3 2 1 1 1 2 2 2 3 6 7 7 7 6 4 4 5 6 6 8 8
2 2 2 1 1 2 2 5 7 7 8 8 8 9 8 6 5 7 8 8 8 9
3 2 2 1 2 3 6 6 6 7 8 10 10 9 8 7 6 7 8 8 8 9
1 1 2 3 2 5 6 6 6 7 8 9 9 9 7 7 7 8 10 10 10 10
2 2 2 2 4 5 6 7 8 8 9 9 10 9 8 7 8 10 11 11 12 12
2 3 3 3 4 5 6 7 8 9 9 9 10 9 9 9 10 11 11 12 13 13
4 4 4 5 4 5 6 8 9 9 9 10 10 9 10 10 11 11 12 11 9 11
5 6 6 6 6 5 6 7 8 9 9 9 11 10 10 11 12 10 9 9 9 8
6 7 8 8 8 7 8 9 9 10 10 11 10 10 9 8 9 10 10 9 10 9